[[{"header":{"parameterUnit":"m.s-1","parameterCategory":1,"la1":30.2991,"la2":30.254,"lo1":-89.0895,"lo2":-89.0444,"dy":0.0017,"dx":0.0017,"nx":28,"ny":28,"refTime":"2025-03-09T21:00:00:Z","depth":0,"parameterNumber":2,"parameterNumberName":"U-component_of_WINDS"},"data":[0,0,0,0,0,0,0,0,0,0,0,0,0,0,0,0,0,0,0,0,0,0,0,0,0,0,0,0,0,0,0,0,0,0,0,0,0,0,0,0,0,0,0,0,0,0,0,0,0,0,0,0,0,0,0,0,0,0,-1.3153,-1.3153,0,-1.3204,-1.3204,-1.3205,-1.3179,-1.3178,-1.3177,-1.3175,-1.323,-1.3232,-1.3235,0,0,0,0,0,0,0,0,0,0,0,0,0,-1.3036,-1.3038,-1.3152,-1.3153,-1.3154,-1.3203,-1.3204,-1.3205,-1.318,-1.3178,-1.3176,-1.3175,-1.3229,-1.3232,-1.3235,0,0,0,0,0,0,0,0,0,0,0,0,0,-1.3087,-1.3039,-1.3152,-1.3147,-1.3147,-1.3203,-1.3204,-1.3205,-1.318,-1.3178,-1.3176,-1.3174,-1.3228,-1.3232,-1.3235,-1.33,0,0,-1.3248,-1.325,0,0,0,0,0,0,0,0,-1.3084,-1.3091,-1.3147,-1.3148,-1.3148,-1.3183,-1.3183,-1.3237,-1.318,-1.3168,-1.3175,-1.3173,-1.3216,-1.3221,-1.3235,-1.3303,-1.3305,-1.3248,-1.3251,-1.3252,-1.3253,0,0,0,0,0,0,0,-1.308,-1.3089,-1.3173,-1.3148,-1.3148,-1.3143,-1.3148,-1.3193,-1.3202,-1.3169,-1.3167,-1.3173,-1.3216,-1.3231,-1.3236,-1.3306,-1.3248,-1.3252,-1.3254,-1.3256,-1.3433,-1.3435,0,0,0,0,0,0,-1.3077,-1.3086,-1.3171,-1.3174,-1.311,-1.3147,-1.3152,-1.3174,-1.3202,-1.3204,-1.3175,-1.3172,-1.3225,-1.3231,-1.3238,-1.3318,-1.3252,-1.3256,-1.3258,-1.3431,-1.3434,-1.3436,0,0,0,0,0,0,-1.3074,-1.3085,-1.3169,-1.313,-1.314,-1.3151,-1.3175,-1.3176,-1.3191,-1.3206,-1.3208,-1.3189,-1.3224,-1.3232,-1.3286,-1.332,-1.3258,-1.3262,-1.3428,-1.3432,-1.3435,-1.3479,0,0,0,0,0,0,-1.3071,-1.3084,-1.3108,-1.313,-1.3142,-1.3216,-1.3177,-1.3178,-1.3198,-1.3194,-1.322,-1.3222,-1.3223,-1.328,-1.329,-1.3324,-1.3265,-1.3425,-1.343,-1.3434,-1.3474,-1.3483,-1.3491,0,0,0,0,0,-1.3067,-1.3118,-1.3109,-1.312,-1.3172,-1.3218,-1.3224,-1.3223,-1.3201,-1.3226,-1.3236,-1.3221,-1.3314,-1.3285,-1.3296,-1.3333,-1.3423,-1.3429,-1.3434,-1.3471,-1.3481,-1.3491,0,0,0,0,0,0,-1.3099,-1.3121,-1.3111,-1.3171,-1.3193,-1.3213,-1.3245,-1.3234,-1.3264,-1.3259,-1.3257,-1.3263,-1.332,-1.3331,-1.3299,-1.3398,-1.3365,-1.3373,-1.339,-1.34,-1.3408,-1.3406,-1.3268,0,0,0,0,0,-1.3113,-1.3148,-1.3164,-1.3215,-1.3227,-1.3234,-1.3253,-1.3251,-1.3273,-1.3283,-1.3297,-1.332,-1.3354,-1.3377,-1.3409,-1.3475,-1.3482,-1.3505,-1.3513,-1.352,-1.3528,-1.3567,-1.3578,-1.3453,-1.3453,-1.3453,0,0,-1.3143,-1.3159,-1.318,-1.3222,-1.3239,-1.3276,-1.3242,-1.3281,-1.331,-1.3289,-1.3341,-1.3352,-1.3378,-1.3439,-1.3466,-1.345,-1.3563,-1.3527,-1.3532,-1.3536,-1.3573,-1.3585,-1.3596,-1.3457,-1.3456,-1.3456,0,0,-1.3217,-1.323,-1.3276,-1.3293,-1.3319,-1.3324,-1.3334,-1.3357,-1.3364,-1.3416,-1.3402,-1.3435,-1.3493,-1.3514,-1.3531,-1.3613,-1.3603,-1.3624,-1.3668,-1.3706,-1.3716,-1.3725,-1.3758,-1.3769,-1.3631,-1.3631,-1.3631,0,-1.3251,-1.3305,-1.3301,-1.3343,-1.3363,-1.3345,-1.3392,-1.3409,-1.3444,-1.3459,-1.344,-1.3515,-1.3531,-1.3597,-1.3618,-1.3631,-1.3646,-1.3622,-1.3715,-1.3724,-1.3732,-1.3763,-1.3775,-1.3633,-1.3633,-1.3633,-1.3633,0,-1.3347,-1.3385,-1.3419,-1.3454,-1.3477,-1.3521,-1.3525,-1.3549,-1.3545,-1.3552,-1.3607,-1.3625,-1.3662,-1.3677,-1.3672,-1.3744,-1.3734,-1.3714,-1.3682,-1.3747,-1.3776,-1.3788,-1.3637,-1.3636,-1.3636,-1.3635,0,0,-1.3445,-1.3477,-1.349,-1.3506,-1.3533,-1.3563,-1.3607,-1.3643,-1.3666,-1.369,-1.3729,-1.3779,-1.3762,-1.3783,-1.378,-1.3813,-1.3881,-1.379,-1.3791,-1.381,-1.3965,-1.3983,-1.3996,-1.3872,-1.3875,-1.3876,-1.3965,0,-1.3523,-1.36,-1.3598,-1.3671,-1.3708,-1.3691,-1.373,-1.3752,-1.3759,-1.3792,-1.38,-1.3838,-1.3811,-1.3824,-1.3855,-1.3866,-1.3913,-1.3859,-1.3912,-1.3914,-1.391,-1.4011,-1.4029,-1.4111,-1.3976,-1.3978,-1.3979,0,-1.3625,-1.3654,-1.373,-1.3754,-1.3769,-1.3804,-1.3839,-1.3869,-1.3894,-1.3897,-1.3921,-1.3913,-1.396,-1.3923,-1.3989,-1.3952,-1.3973,-1.3982,-1.3985,-1.3993,-1.3953,-1.4026,-1.4137,-1.4151,-1.3996,-1.3995,-1.3994,0,-1.3694,-1.3751,-1.3805,-1.3819,-1.3847,-1.3872,-1.3885,-1.3908,-1.393,-1.396,-1.3975,-1.401,-1.403,-1.4057,-1.406,-1.4032,-1.4128,-1.409,-1.4135,-1.4135,-1.4158,-1.4158,-1.4279,-1.4165,-1.4165,-1.4165,-1.4165,0,-1.3784,-1.3832,-1.3836,-1.387,-1.3924,-1.3921,-1.3975,-1.3986,-1.4006,-1.4043,-1.4029,-1.4064,-1.4064,-1.41,-1.4102,-1.4159,-1.4166,-1.4173,-1.4173,-1.4176,-1.4176,-1.4193,-1.4189,-1.4168,-1.4167,-1.4167,-1.4166,0,-1.3871,-1.3875,-1.3933,-1.3955,-1.3961,-1.4001,-1.402,-1.4053,-1.4059,-1.4106,-1.4117,-1.4127,-1.4169,-1.4173,-1.4221,-1.4223,-1.4292,-1.4285,-1.4285,-1.4285,-1.433,-1.4328,-1.447,-1.449,-1.4359,-1.436,-1.4361,0,-1.393,-1.3967,-1.3993,-1.4016,-1.4031,-1.4068,-1.4092,-1.409,-1.4115,-1.4147,-1.4177,-1.4217,-1.4249,-1.4317,-1.433,-1.4367,-1.4363,-1.441,-1.4369,-1.4372,-1.4369,-1.4369,-1.4374,-1.442,-1.4421,-1.4422,-1.4423,0,-1.4036,-1.4036,-1.407,-1.4105,-1.4133,-1.4161,-1.4187,-1.4207,-1.4209,-1.4238,-1.428,-1.4305,-1.4355,-1.4397,-1.4434,-1.4448,-1.4438,-1.4435,-1.4449,-1.4454,-1.4454,-1.4459,-1.4311,-1.4433,-1.4432,-1.4432,-1.4431,-1.4431,-1.4114,-1.4147,-1.4171,-1.421,-1.4229,-1.4254,-1.4287,-1.4297,-1.4332,-1.4373,-1.4369,-1.4417,-1.4443,-1.4492,-1.4509,-1.4548,-1.4532,-1.455,-1.4555,-1.4561,-1.4568,-1.4444,-1.4554,-1.4553,-1.4553,-1.4553,-1.4553,0,-1.4222,-1.4237,-1.4272,-1.431,-1.4341,-1.4325,-1.4354,-1.4381,-1.4424,-1.4448,-1.448,-1.453,-1.4571,-1.4586,-1.4626,-1.4654,-1.4651,-1.4665,-1.4665,-1.467,-1.4577,-1.4564,-1.4668,-1.4668,-1.4668,-1.4668,-1.4668,-1.4668,-1.4283,-1.434,-1.4343,-1.441,-1.4424,-1.4471,-1.4489,-1.4513,-1.4533,-1.4589,-1.4623,-1.4632,-1.4654,-1.4696,-1.4733,-1.4736,-1.4754,-1.4771,-1.4773,-1.4687,-1.4676,-1.4665,-1.4653,-1.4774,-1.4774,-1.4864,-1.4865,-1.4865]},{"header":{"parameterUnit":"m.s-1","parameterCategory":1,"la1":30.2991,"la2":30.254,"lo1":-89.0895,"lo2":-89.0444,"dy":0.0017,"dx":0.0017,"nx":28,"ny":28,"refTime":"2025-03-09T21:00:00:Z","depth":0,"parameterNumber":3,"parameterNumberName":"V-component_of_WINDS"},"data":[0,0,0,0,0,0,0,0,0,0,0,0,0,0,0,0,0,0,0,0,0,0,0,0,0,0,0,0,0,0,0,0,0,0,0,0,0,0,0,0,0,0,0,0,0,0,0,0,0,0,0,0,0,0,0,0,0,0,-4.0202,-4.0203,0,-4.0228,-4.0228,-4.0228,-4.019,-4.0189,-4.0188,-4.0186,-4.0209,-4.021,-4.0212,0,0,0,0,0,0,0,0,0,0,0,0,0,-4.0118,-4.0119,-4.0202,-4.0203,-4.0203,-4.0228,-4.0228,-4.0229,-4.0191,-4.0189,-4.0187,-4.0186,-4.0208,-4.021,-4.0212,0,0,0,0,0,0,0,0,0,0,0,0,0,-4.015,-4.012,-4.0202,-4.0187,-4.0186,-4.0228,-4.0228,-4.0229,-4.0191,-4.0189,-4.0187,-4.0185,-4.0207,-4.021,-4.0213,-4.0269,0,0,-4.0221,-4.0222,0,0,0,0,0,0,0,0,-4.0148,-4.0153,-4.0189,-4.0188,-4.0187,-4.0204,-4.0206,-4.0242,-4.0191,-4.0189,-4.0186,-4.0184,-4.0208,-4.0211,-4.022,-4.027,-4.0271,-4.0221,-4.0223,-4.0224,-4.0225,0,0,0,0,0,0,0,-4.0146,-4.0152,-4.0212,-4.019,-4.0188,-4.0178,-4.018,-4.0213,-4.0209,-4.0189,-4.0186,-4.019,-4.0207,-4.0217,-4.022,-4.0272,-4.0221,-4.0224,-4.0225,-4.0226,-4.0372,-4.0374,0,0,0,0,0,0,-4.0146,-4.015,-4.0211,-4.0213,-4.0162,-4.0181,-4.0184,-4.02,-4.0209,-4.0208,-4.0192,-4.0188,-4.0214,-4.0217,-4.0221,-4.029,-4.0224,-4.0227,-4.0228,-4.037,-4.0373,-4.0375,0,0,0,0,0,0,-4.0144,-4.0152,-4.021,-4.0181,-4.0188,-4.0185,-4.0204,-4.0202,-4.0212,-4.0211,-4.021,-4.0203,-4.0212,-4.0217,-4.0258,-4.029,-4.0228,-4.023,-4.0367,-4.0371,-4.0374,-4.0428,0,0,0,0,0,0,-4.0142,-4.0151,-4.0174,-4.0182,-4.0189,-4.0249,-4.0206,-4.0204,-4.0217,-4.0213,-4.0221,-4.0221,-4.0211,-4.0255,-4.0261,-4.0293,-4.0233,-4.0365,-4.0369,-4.0373,-4.0423,-4.0433,-4.0441,0,0,0,0,0,-4.0139,-4.0186,-4.0175,-4.0183,-4.0217,-4.0251,-4.0255,-4.0244,-4.022,-4.0242,-4.0242,-4.022,-4.0285,-4.0259,-4.0266,-4.0299,-4.0363,-4.0368,-4.0373,-4.042,-4.0431,-4.0441,0,0,0,0,0,0,-4.018,-4.0187,-4.0174,-4.0226,-4.0238,-4.0244,-4.0272,-4.0256,-4.0274,-4.0269,-4.0254,-4.0256,-4.0301,-4.0304,-4.0275,-4.0356,-4.032,-4.0327,-4.0353,-4.0364,-4.0372,-4.0372,-4.0235,0,0,0,0,0,-4.0195,-4.0223,-4.0227,-4.0272,-4.0279,-4.0274,-4.0288,-4.0279,-4.0291,-4.0295,-4.0298,-4.0309,-4.0332,-4.0348,-4.0368,-4.0423,-4.0425,-4.0449,-4.0458,-4.0465,-4.0472,-4.0503,-4.0514,-4.0392,-4.0392,-4.0392,0,0,-4.0226,-4.0234,-4.0252,-4.028,-4.0289,-4.0318,-4.0279,-4.031,-4.0332,-4.03,-4.0341,-4.0342,-4.0354,-4.0403,-4.0424,-4.0406,-4.0506,-4.0471,-4.0477,-4.048,-4.0509,-4.0521,-4.0531,-4.0395,-4.0394,-4.0394,0,0,-4.0299,-4.0306,-4.0346,-4.0356,-4.037,-4.0367,-4.0377,-4.0386,-4.0387,-4.0427,-4.0405,-4.0429,-4.0468,-4.0479,-4.0489,-4.0567,-4.0549,-4.0573,-4.062,-4.0651,-4.066,-4.0669,-4.0699,-4.071,-4.058,-4.058,-4.058,0,-4.0336,-4.038,-4.0368,-4.0403,-4.0416,-4.039,-4.0431,-4.044,-4.046,-4.047,-4.0449,-4.05,-4.0506,-4.0558,-4.0578,-4.0585,-4.0597,-4.0574,-4.066,-4.0669,-4.0676,-4.0705,-4.0717,-4.0583,-4.0583,-4.0582,-4.0582,0,-4.0426,-4.0457,-4.0487,-4.051,-4.0526,-4.0563,-4.0557,-4.0575,-4.0564,-4.0563,-4.0606,-4.0611,-4.0635,-4.0645,-4.0634,-4.0697,-4.0686,-4.0663,-4.0627,-4.0692,-4.0719,-4.0729,-4.0588,-4.0586,-4.0585,-4.0585,0,0,-4.0525,-4.0543,-4.0554,-4.0565,-4.058,-4.0603,-4.0638,-4.0663,-4.068,-4.0693,-4.0724,-4.0759,-4.0739,-4.0751,-4.074,-4.0767,-4.0832,-4.0741,-4.0741,-4.076,-4.0904,-4.0923,-4.0936,-4.0819,-4.0821,-4.0822,-4.0904,0,-4.06,-4.0665,-4.0656,-4.0718,-4.0747,-4.0723,-4.0755,-4.0767,-4.0767,-4.0791,-4.0789,-4.0816,-4.0786,-4.0793,-4.0818,-4.0819,-4.0861,-4.0812,-4.0848,-4.0849,-4.0849,-4.095,-4.097,-4.1047,-4.0914,-4.0916,-4.0917,0,-4.0696,-4.0718,-4.0783,-4.0796,-4.0807,-4.0836,-4.0859,-4.0882,-4.0895,-4.0893,-4.0907,-4.0892,-4.0928,-4.089,-4.094,-4.0907,-4.0921,-4.0923,-4.0926,-4.0931,-4.0889,-4.096,-4.1071,-4.1083,-4.0933,-4.0932,-4.093,0,-4.0767,-4.081,-4.0856,-4.0866,-4.088,-4.0902,-4.0908,-4.092,-4.0936,-4.0955,-4.0965,-4.0987,-4.1,-4.1017,-4.1009,-4.0981,-4.1061,-4.1021,-4.1061,-4.1062,-4.1081,-4.1081,-4.1198,-4.1085,-4.1085,-4.1085,-4.1085,0,-4.0853,-4.0895,-4.0889,-4.0917,-4.0963,-4.0952,-4.0998,-4.1001,-4.1012,-4.104,-4.1019,-4.1046,-4.1032,-4.1058,-4.1051,-4.1095,-4.1099,-4.1099,-4.1098,-4.1103,-4.1104,-4.1114,-4.111,-4.1088,-4.1087,-4.1087,-4.1086,0,-4.094,-4.0937,-4.0986,-4.0997,-4.1001,-4.1035,-4.1043,-4.107,-4.1068,-4.1104,-4.1112,-4.111,-4.1139,-4.1132,-4.1163,-4.1158,-4.1215,-4.1204,-4.1212,-4.121,-4.1252,-4.1249,-4.1383,-4.1401,-4.1273,-4.1274,-4.1275,0,-4.0997,-4.1029,-4.1044,-4.1063,-4.1072,-4.1101,-4.1119,-4.1108,-4.1127,-4.1145,-4.117,-4.1198,-4.122,-4.1268,-4.1268,-4.1292,-4.1284,-4.1329,-4.1288,-4.1293,-4.1289,-4.1288,-4.1293,-4.1339,-4.134,-4.1341,-4.1342,0,-4.1099,-4.1097,-4.1123,-4.115,-4.1172,-4.1191,-4.1209,-4.1225,-4.1216,-4.1237,-4.1269,-4.1286,-4.1319,-4.1348,-4.137,-4.1376,-4.1359,-4.1355,-4.1366,-4.1374,-4.1378,-4.1379,-4.1237,-4.1352,-4.1351,-4.1351,-4.135,-4.135,-4.1175,-4.1203,-4.122,-4.125,-4.1263,-4.128,-4.1307,-4.131,-4.1336,-4.1364,-4.1356,-4.1392,-4.1405,-4.1434,-4.1442,-4.147,-4.1453,-4.1468,-4.1472,-4.1477,-4.1484,-4.1371,-4.1473,-4.1473,-4.1473,-4.1472,-4.1472,0,-4.1279,-4.1288,-4.1317,-4.1344,-4.1368,-4.135,-4.1369,-4.139,-4.1423,-4.1437,-4.146,-4.1497,-4.1525,-4.1528,-4.1554,-4.1576,-4.1568,-4.1583,-4.1583,-4.1585,-4.1496,-4.1486,-4.1589,-4.1589,-4.1589,-4.1589,-4.1589,-4.1589,-4.1336,-4.1385,-4.1385,-4.1439,-4.1448,-4.1485,-4.1498,-4.1514,-4.1526,-4.1569,-4.1593,-4.1595,-4.1605,-4.1632,-4.1657,-4.1657,-4.1669,-4.1688,-4.1685,-4.1602,-4.1591,-4.158,-4.157,-4.169,-4.169,-4.1772,-4.1773,-4.1773]}]]